User: anonymous   Login
Location: Oberwangen
(47.4286°N, 8.9679°E)
Time: 19:57:19
(UTC+00:00)
Language:

METEOR 2-17 DEB - Orbit

View from above orbital plane
View from above orbital plane
View from above satellite
View from above satellite

Ground track
Ground track

The orbit data is extracted from the following two-line orbital elements,

1 38540U 88005AT  22015.51544120  .00001693  00000-0  86750-3 0  9991
2 38540  82.5227 307.6849 0009830 249.6960 110.3161 14.14963852919387
Epoch (UTC): 15 January 2022 12:22:14
Eccentricity: 0.0009830
inclination: 82.5227°
perigee height: 835 km
apogee height: 849 km
right ascension of ascending node: 307.6849°
argument of perigee: 249.6960°
revolutions per day: 14.14963852
mean anomaly at epoch: 110.3161°
orbit number at epoch: 91938

The dashed part of the orbit path shows where the satellite is in the earth's shadow,  

DLR